カタログに戻る

STARLINK-32380

運用中通信VLEO
NORAD 61069·PAYLOAD·🇺🇸 United States

打ち上げ Sep 13, 2024 から Vandenberg Space Force Base

Loading…

次のパス (今後24時間)

TLE

最新Source: CelesTrak SupGP

元期: Sep 14, 2026, 21:35 UTC

1 61069C 24164V   26257.89979167  .00030104  00000+0  96918-3 0  2577
2 61069  53.1589 290.9986 0001023 112.1647 269.4112 15.31649921    13

AllMySatでSTARLINK-32380をリアルタイム追跡

Download on the App Store